,,PressureMeas_1m,,PRMeasQMR101_1,,RHStat155_1m_1,,SRMeasQMS101R_1m,,TAStat155_1m_1,,GenWind_1,,GenWind_1,
2017-03-21, 07:00:06,VALID,919.166,VALID,0.0,VALID,87.958,VALID,51.545,VALID,20.407,VALID,359.0,VALID,0.608,
2017-03-21, 07:01:06,VALID,919.184,VALID,0.0,VALID,87.792,VALID,54.181,VALID,20.486,VALID,110.0,VALID,0.271,
2017-03-21, 07:02:06,VALID,919.211,VALID,0.0,VALID,87.716,VALID,56.714,VALID,20.532,VALID,66.0,VALID,0.149,
2017-03-21, 07:03:06,VALID,919.241,VALID,0.0,VALID,88.031,VALID,58.995,VALID,20.554,VALID,37.0,VALID,0.313,
2017-03-21, 07:04:06,VALID,919.235,VALID,0.0,VALID,88.316,VALID,60.996,VALID,20.551,VALID,28.0,VALID,0.246,
2017-03-21, 07:05:06,VALID,919.245,VALID,0.0,VALID,88.629,VALID,62.914,VALID,20.474,VALID,28.0,VALID,0.174,
2017-03-21, 07:06:06,VALID,919.251,VALID,0.0,VALID,88.812,VALID,64.73,VALID,20.431,VALID,17.0,VALID,0.55,
2017-03-21, 07:07:06,VALID,919.269,VALID,0.0,VALID,89.002,VALID,66.486,VALID,20.469,VALID,348.0,VALID,1.198,
2017-03-21, 07:08:06,VALID,919.277,VALID,0.0,VALID,88.651,VALID,68.157,VALID,20.538,VALID,340.0,VALID,1.364,
2017-03-21, 07:09:06,VALID,919.317,VALID,0.0,VALID,88.558,VALID,69.972,VALID,20.594,VALID,359.0,VALID,1.141,
2017-03-21, 07:10:06,VALID,919.343,VALID,0.0,VALID,88.513,VALID,72.059,VALID,20.631,VALID,12.0,VALID,0.547,
2017-03-21, 07:11:06,VALID,919.338,VALID,0.0,VALID,88.504,VALID,74.178,VALID,20.666,VALID,14.0,VALID,1.126,
2017-03-21, 07:12:06,VALID,919.368,VALID,0.0,VALID,88.668,VALID,76.697,VALID,20.676,VALID,346.0,VALID,0.47,
2017-03-21, 07:13:06,VALID,919.37,VALID,0.0,VALID,88.237,VALID,79.281,VALID,20.689,VALID,4.0,VALID,0.946,
2017-03-21, 07:14:06,VALID,919.352,VALID,0.0,VALID,88.675,VALID,81.635,VALID,20.677,VALID,6.0,VALID,1.353,
2017-03-21, 07:15:06,VALID,919.348,VALID,0.0,VALID,89.111,VALID,83.807,VALID,20.6,VALID,358.0,VALID,1.493,
2017-03-21, 07:16:06,VALID,919.377,VALID,0.0,VALID,88.671,VALID,85.798,VALID,20.584,VALID,336.0,VALID,1.105,
2017-03-21, 07:17:06,VALID,919.409,VALID,0.0,VALID,88.707,VALID,87.927,VALID,20.63,VALID,313.0,VALID,0.45,
2017-03-21, 07:18:06,VALID,919.434,VALID,0.0,VALID,88.752,VALID,89.964,VALID,20.687,VALID,309.0,VALID,0.067,
2017-03-21, 07:19:06,VALID,919.456,VALID,0.0,VALID,88.901,VALID,91.519,VALID,20.738,VALID,19.0,VALID,0.51,
2017-03-21, 07:20:06,VALID,919.473,VALID,0.0,VALID,89.342,VALID,93.68,VALID,20.749,VALID,359.0,VALID,0.207,
2017-03-21, 07:21:06,VALID,919.471,VALID,0.0,VALID,89.4,VALID,96.71,VALID,20.74,VALID,16.0,VALID,0.254,
2017-03-21, 07:22:06,VALID,919.474,VALID,0.0,VALID,89.154,VALID,100.377,VALID,20.76,VALID,26.0,VALID,0.497,
2017-03-21, 07:23:06,VALID,919.474,VALID,0.0,VALID,89.216,VALID,105.038,VALID,20.784,VALID,7.0,VALID,0.709,
2017-03-21, 07:24:06,VALID,919.5,VALID,0.0,VALID,88.911,VALID,110.343,VALID,20.766,VALID,350.0,VALID,0.448,
2017-03-21, 07:25:06,VALID,919.507,VALID,0.0,VALID,89.05,VALID,115.256,VALID,20.766,VALID,307.0,VALID,0.034,
2017-03-21, 07:26:06,VALID,919.515,VALID,0.0,VALID,88.631,VALID,119.797,VALID,20.804,VALID,206.0,VALID,0.038,
2017-03-21, 07:27:06,VALID,919.514,VALID,0.0,VALID,89.02,VALID,123.587,VALID,20.847,VALID,33.0,VALID,0.772,
2017-03-21, 07:28:06,VALID,919.53,VALID,0.0,VALID,89.009,VALID,129.138,VALID,20.862,VALID,24.0,VALID,1.102,
2017-03-21, 07:29:06,VALID,919.519,VALID,0.0,VALID,89.112,VALID,138.465,VALID,20.878,VALID,5.0,VALID,1.441,
2017-03-21, 07:30:06,VALID,919.522,VALID,0.0,VALID,88.952,VALID,151.507,VALID,20.888,VALID,348.0,VALID,0.797,
2017-03-21, 07:31:06,VALID,919.552,VALID,0.0,VALID,89.46,VALID,152.396,VALID,20.924,VALID,305.0,VALID,0.252,
2017-03-21, 07:32:06,VALID,919.558,VALID,0.0,VALID,88.731,VALID,155.243,VALID,20.936,VALID,160.0,VALID,0.211,
2017-03-21, 07:33:06,VALID,919.574,VALID,0.0,VALID,89.036,VALID,166.952,VALID,20.969,VALID,6.0,VALID,1.14,
2017-03-21, 07:34:06,VALID,919.587,VALID,0.0,VALID,88.547,VALID,176.053,VALID,20.967,VALID,6.0,VALID,0.961,
2017-03-21, 07:35:06,VALID,919.582,VALID,0.0,VALID,88.834,VALID,197.716,VALID,21.007,VALID,14.0,VALID,1.521,
2017-03-21, 07:36:06,VALID,919.592,VALID,0.0,VALID,89.088,VALID,230.455,VALID,21.035,VALID,3.0,VALID,1.0,
2017-03-21, 07:37:06,VALID,919.592,VALID,0.0,VALID,88.968,VALID,260.414,VALID,21.09,VALID,12.0,VALID,1.131,
2017-03-21, 07:38:06,VALID,919.61,VALID,0.0,VALID,89.529,VALID,264.254,VALID,21.196,VALID,3.0,VALID,0.578,
2017-03-21, 07:39:06,VALID,919.604,VALID,0.0,VALID,89.543,VALID,262.75,VALID,21.32,VALID,287.0,VALID,0.107,
2017-03-21, 07:40:06,VALID,919.612,VALID,0.0,VALID,88.329,VALID,247.343,VALID,21.441,VALID,293.0,VALID,0.101,
2017-03-21, 07:41:06,VALID,919.611,VALID,0.0,VALID,88.239,VALID,258.475,VALID,21.586,VALID,15.0,VALID,0.791,
2017-03-21, 07:42:06,VALID,919.599,VALID,0.0,VALID,87.115,VALID,254.578,VALID,21.711,VALID,2.0,VALID,1.38,
2017-03-21, 07:43:06,VALID,919.604,VALID,0.0,VALID,87.038,VALID,250.543,VALID,21.787,VALID,14.0,VALID,1.044,
2017-03-21, 07:44:06,VALID,919.635,VALID,0.0,VALID,86.899,VALID,229.413,VALID,21.857,VALID,340.0,VALID,0.62,
2017-03-21, 07:45:06,VALID,919.64,VALID,0.0,VALID,86.121,VALID,235.257,VALID,21.901,VALID,338.0,VALID,0.111,
2017-03-21, 07:46:06,VALID,919.632,VALID,0.0,VALID,85.624,VALID,245.023,VALID,21.991,VALID,336.0,VALID,0.119,
2017-03-21, 07:47:06,VALID,919.635,VALID,0.0,VALID,85.321,VALID,237.198,VALID,22.046,VALID,359.0,VALID,0.602,
2017-03-21, 07:48:06,VALID,919.668,VALID,0.0,VALID,85.242,VALID,225.026,VALID,22.05,VALID,3.0,VALID,0.45,
2017-03-21, 07:49:06,VALID,919.695,VALID,0.0,VALID,85.616,VALID,214.073,VALID,21.996,VALID,26.0,VALID,1.782,
2017-03-21, 07:50:06,VALID,919.741,VALID,0.0,VALID,86.497,VALID,200.358,VALID,21.976,VALID,34.0,VALID,0.398,
2017-03-21, 07:51:06,VALID,919.759,VALID,0.0,VALID,86.215,VALID,196.252,VALID,22.057,VALID,355.0,VALID,0.188,
2017-03-21, 07:52:06,VALID,919.787,VALID,0.0,VALID,85.501,VALID,191.337,VALID,22.139,VALID,174.0,VALID,0.094,
2017-03-21, 07:53:06,VALID,919.81,VALID,0.0,VALID,85.318,VALID,184.167,VALID,22.197,VALID,98.0,VALID,0.118,
2017-03-21, 07:54:06,VALID,919.817,VALID,0.0,VALID,84.975,VALID,186.882,VALID,22.201,VALID,358.0,VALID,0.113,
2017-03-21, 07:55:06,VALID,919.834,VALID,0.0,VALID,85.114,VALID,192.736,VALID,22.195,VALID,19.0,VALID,0.287,
2017-03-21, 07:56:06,VALID,919.849,VALID,0.0,VALID,84.816,VALID,184.94,VALID,22.232,VALID,15.0,VALID,0.371,
2017-03-21, 07:57:06,VALID,919.86,VALID,0.0,VALID,84.532,VALID,186.089,VALID,22.214,VALID,322.0,VALID,0.505,
2017-03-21, 07:58:06,VALID,919.89,VALID,0.0,VALID,84.356,VALID,190.818,VALID,22.175,VALID,326.0,VALID,0.128,
2017-03-21, 07:59:06,VALID,919.892,VALID,0.0,VALID,84.881,VALID,202.355,VALID,22.167,VALID,16.0,VALID,0.032,
2017-03-21, 08:00:06,VALID,919.901,VALID,0.0,VALID,84.257,VALID,239.946,VALID,22.177,VALID,5.0,VALID,0.245,
2017-03-21, 08:01:06,VALID,919.905,VALID,0.0,VALID,85.033,VALID,278.628,VALID,22.192,VALID,143.0,VALID,0.059,
2017-03-21, 08:02:06,VALID,919.899,VALID,0.0,VALID,84.947,VALID,348.441,VALID,22.259,VALID,187.0,VALID,0.094,
2017-03-21, 08:03:06,VALID,919.898,VALID,0.0,VALID,84.789,VALID,387.876,VALID,22.338,VALID,161.0,VALID,0.163,
2017-03-21, 08:04:06,VALID,919.891,VALID,0.0,VALID,84.768,VALID,288.676,VALID,22.47,VALID,104.0,VALID,0.121,
2017-03-21, 08:05:06,VALID,919.896,VALID,0.0,VALID,84.111,VALID,228.905,VALID,22.618,VALID,239.0,VALID,0.108,
2017-03-21, 08:06:06,VALID,919.897,VALID,0.0,VALID,83.598,VALID,232.65,VALID,22.558,VALID,320.0,VALID,1.289,
2017-03-21, 08:07:06,VALID,919.924,VALID,0.0,VALID,84.838,VALID,175.965,VALID,22.4,VALID,315.0,VALID,0.438,
2017-03-21, 08:08:06,VALID,919.936,VALID,0.0,VALID,85.305,VALID,217.47,VALID,22.405,VALID,2.0,VALID,0.502,
2017-03-21, 08:09:06,VALID,919.93,VALID,0.0,VALID,85.449,VALID,203.858,VALID,22.474,VALID,331.0,VALID,0.368,
2017-03-21, 08:10:06,VALID,919.899,VALID,0.0,VALID,84.515,VALID,225.315,VALID,22.494,VALID,306.0,VALID,0.465,
2017-03-21, 08:11:06,VALID,919.894,VALID,0.0,VALID,84.655,VALID,223.707,VALID,22.395,VALID,355.0,VALID,0.735,
2017-03-21, 08:12:06,VALID,919.882,VALID,0.0,VALID,84.801,VALID,257.294,VALID,22.307,VALID,277.0,VALID,1.104,
2017-03-21, 08:13:06,VALID,919.883,VALID,0.0,VALID,85.379,VALID,300.366,VALID,22.243,VALID,345.0,VALID,1.063,
2017-03-21, 08:14:06,VALID,919.905,VALID,0.0,VALID,86.036,VALID,255.769,VALID,22.226,VALID,243.0,VALID,0.641,
2017-03-21, 08:15:06,VALID,919.891,VALID,0.0,VALID,85.531,VALID,324.99,VALID,22.292,VALID,61.0,VALID,0.688,
2017-03-21, 08:16:06,VALID,919.877,VALID,0.0,VALID,85.053,VALID,417.675,VALID,22.36,VALID,11.0,VALID,1.139,
2017-03-21, 08:17:06,VALID,919.854,VALID,0.0,VALID,85.882,VALID,325.426,VALID,22.441,VALID,9.0,VALID,1.413,
2017-03-21, 08:18:06,VALID,919.833,VALID,0.0,VALID,85.426,VALID,300.889,VALID,22.545,VALID,12.0,VALID,0.671,
2017-03-21, 08:19:06,VALID,919.828,VALID,0.0,VALID,84.959,VALID,311.408,VALID,22.664,VALID,312.0,VALID,0.177,
2017-03-21, 08:20:06,VALID,919.829,VALID,0.0,VALID,84.51,VALID,182.587,VALID,22.748,VALID,6.0,VALID,0.482,
2017-03-21, 08:21:06,VALID,919.823,VALID,0.0,VALID,84.035,VALID,331.565,VALID,22.745,VALID,346.0,VALID,2.012,
2017-03-21, 08:22:06,VALID,919.83,VALID,0.0,VALID,84.639,VALID,391.966,VALID,22.634,VALID,3.0,VALID,1.71,
2017-03-21, 08:23:06,VALID,919.863,VALID,0.0,VALID,84.827,VALID,364.312,VALID,22.648,VALID,325.0,VALID,0.264,
2017-03-21, 08:24:06,VALID,919.849,VALID,0.0,VALID,84.747,VALID,463.749,VALID,22.703,VALID,315.0,VALID,0.734,
2017-03-21, 08:25:06,VALID,919.859,VALID,0.0,VALID,84.834,VALID,249.091,VALID,22.84,VALID,20.0,VALID,0.95,
2017-03-21, 08:26:06,VALID,919.877,VALID,0.0,VALID,83.832,VALID,222.653,VALID,22.908,VALID,293.0,VALID,0.465,
2017-03-21, 08:27:06,VALID,919.901,VALID,0.0,VALID,83.505,VALID,369.473,VALID,22.998,VALID,187.0,VALID,0.291,
2017-03-21, 08:28:06,VALID,919.893,VALID,0.0,VALID,82.419,VALID,377.86,VALID,23.007,VALID,274.0,VALID,0.841,
2017-03-21, 08:29:06,VALID,919.895,VALID,0.0,VALID,83.044,VALID,274.996,VALID,22.903,VALID,346.0,VALID,1.103,
2017-03-21, 08:30:06,VALID,919.92,VALID,0.0,VALID,83.396,VALID,481.848,VALID,22.848,VALID,336.0,VALID,1.294,
2017-03-21, 08:31:06,VALID,919.926,VALID,0.0,VALID,84.38,VALID,567.904,VALID,22.751,VALID,335.0,VALID,0.793,
2017-03-21, 08:32:06,VALID,919.945,VALID,0.0,VALID,84.029,VALID,418.668,VALID,22.778,VALID,351.0,VALID,1.32,
2017-03-21, 08:33:06,VALID,919.968,VALID,0.0,VALID,84.49,VALID,239.071,VALID,22.807,VALID,338.0,VALID,0.512,
2017-03-21, 08:34:06,VALID,919.984,VALID,0.0,VALID,84.472,VALID,242.922,VALID,22.947,VALID,174.0,VALID,0.244,
2017-03-21, 08:35:06,VALID,919.984,VALID,0.0,VALID,84.201,VALID,228.343,VALID,23.096,VALID,28.0,VALID,0.973,
2017-03-21, 08:36:06,VALID,919.99,VALID,0.0,VALID,83.492,VALID,523.19,VALID,23.209,VALID,347.0,VALID,0.554,
2017-03-21, 08:37:06,VALID,920.01,VALID,0.0,VALID,82.828,VALID,569.102,VALID,23.306,VALID,229.0,VALID,0.444,
2017-03-21, 08:38:06,VALID,920.014,VALID,0.0,VALID,81.679,VALID,603.389,VALID,23.437,VALID,287.0,VALID,0.181,
2017-03-21, 08:39:06,VALID,920.031,VALID,0.0,VALID,81.199,VALID,258.269,VALID,23.469,VALID,316.0,VALID,0.83,
2017-03-21, 08:40:06,VALID,920.036,VALID,0.0,VALID,81.204,VALID,227.882,VALID,23.397,VALID,12.0,VALID,0.535,
2017-03-21, 08:41:06,VALID,920.044,VALID,0.0,VALID,81.563,VALID,551.553,VALID,23.448,VALID,266.0,VALID,0.132,
2017-03-21, 08:42:06,VALID,920.039,VALID,0.0,VALID,80.684,VALID,472.424,VALID,23.526,VALID,217.0,VALID,0.575,
2017-03-21, 08:43:06,VALID,920.027,VALID,0.0,VALID,81.699,VALID,578.811,VALID,23.501,VALID,68.0,VALID,0.82,
2017-03-21, 08:44:06,VALID,920.038,VALID,0.0,VALID,81.626,VALID,608.355,VALID,23.5,VALID,239.0,VALID,0.241,
2017-03-21, 08:45:06,VALID,920.013,VALID,0.0,VALID,82.556,VALID,496.158,VALID,23.644,VALID,358.0,VALID,0.812,
2017-03-21, 08:46:06,VALID,919.983,VALID,0.0,VALID,80.655,VALID,561.383,VALID,23.771,VALID,3.0,VALID,0.827,
2017-03-21, 08:47:06,VALID,919.985,VALID,0.0,VALID,80.781,VALID,520.745,VALID,23.859,VALID,2.0,VALID,1.125,
2017-03-21, 08:48:06,VALID,919.986,VALID,0.0,VALID,79.804,VALID,566.826,VALID,23.842,VALID,2.0,VALID,1.103,
2017-03-21, 08:49:06,VALID,919.984,VALID,0.0,VALID,79.933,VALID,543.167,VALID,23.766,VALID,7.0,VALID,1.322,
2017-03-21, 08:50:06,VALID,919.977,VALID,0.0,VALID,80.141,VALID,454.894,VALID,23.64,VALID,13.0,VALID,1.882,
2017-03-21, 08:51:06,VALID,919.966,VALID,0.0,VALID,81.198,VALID,533.192,VALID,23.563,VALID,360.0,VALID,2.301,
2017-03-21, 08:52:06,VALID,919.957,VALID,0.0,VALID,80.938,VALID,601.028,VALID,23.419,VALID,3.0,VALID,2.368,
2017-03-21, 08:53:06,VALID,919.987,VALID,0.0,VALID,81.722,VALID,480.162,VALID,23.4,VALID,356.0,VALID,1.175,
